Home > Weather > Lübbecke > Past weeks

Flag for Germany Weather for the Past 2 Weeks in Lübbecke, North Rhine-Westphalia, Germany

Now
46 °F

Cool.


Feels Like: 45 °F
Forecast: 41 / 61 °F
Wind: 3 mph from Southeast

Location: Bueckeburg

Current Time: May 4, 2016 at 11:46:33 PM

Latest Report: May 4, 2016 at 10:20 PM


Visibility: N/A

Pressure: 30.39 "Hg

Humidity: 66%

Dew Point: 36 °F

Location of LübbeckeLocation

Historic Weather in Lübbecke — Graph

°F

Lübbecke Temperature Yesterday

Maximum temperature yesterday: 57 °F (at 5:20 PM)
Minimum temperature yesterday: 43 °F (at 11:20 PM)
Average temperature yesterday: 52 °F

High & Low Weather Summary for the Past Weeks

 TemperatureHumidityPressure
High68 °F (May 2, 4:20 PM)100% (Apr 21, 7:20 AM)30.45 "Hg (Apr 21, 7:20 AM)
Low32 °F (Apr 21, 6:20 AM)34% (May 4, 6:20 PM)29.39 "Hg (Apr 26, 1:20 PM)
Average45 °F74%30.00 "Hg
* Reported Apr 19 7:20 PM — May 4 7:20 PM, Lübbecke, Weather by CustomWeather, © 2016

Note: Actual official high and low records may vary slightly from our data, if they occured in-between our weather recording intervals... More about our weather records

Advertising

Lübbecke Weather History for the Previous 24 Hours

Scroll right to see more
 ConditionsComfort  
Time TempWeatherWind HumidityBarometerVisibility
7:20 PM
Wed, May 4
57 °FRefreshingly cool.7 mph39%30.36 "HgN/A
6:20 PM59 °FRefreshingly cool.6 mph34%30.36 "HgN/A
5:20 PM57 °FRefreshingly cool.8 mph39%30.36 "HgN/A
4:20 PM57 °FRefreshingly cool.5 mph39%30.39 "HgN/A
3:20 PM57 °FRefreshingly cool.5 mph41%30.39 "HgN/A
2:20 PM55 °FRefreshingly cool.5 mph44%30.39 "HgN/A
1:20 PM55 °FRefreshingly cool.5 mph44%30.39 "HgN/A
12:20 PM54 °FCool.5 mph51%30.39 "HgN/A
11:20 AM52 °FCool.2 mph54%30.42 "HgN/A
10:20 AM50 °FCool.5 mph67%30.42 "HgN/A
9:20 AM46 °FCool.3 mph82%30.42 "HgN/A
8:20 AM43 °FQuite cool.2 mph93%30.39 "Hg6 mi
7:20 AM41 °FQuite cool.2 mph93%30.39 "Hg5 mi
6:20 AM36 °FChilly.2 mph93%30.39 "Hg5 mi
5:20 AM36 °FChilly.2 mph93%30.36 "Hg5 mi
4:20 AM36 °FChilly.5 mph93%30.36 "HgN/A
3:20 AM36 °FChilly.2 mph93%30.33 "HgN/A
2:20 AM37 °FChilly.3 mph93%30.33 "HgN/A
1:20 AM37 °FChilly.3 mph93%30.33 "HgN/A
12:20 AM39 °FChilly.2 mph87%30.33 "HgN/A
11:20 PM
Tue, May 3
43 °FQuite cool.2 mph81%30.30 "HgN/A
Weather by CustomWeather, © 2016

See weather overviewHow to use our weather pages